CW2671 Weather Reports


time (UTC)temp
F
wind
direction
speed
knots
gust
knots
rain 1hr
in
rain 24hr
in
rain mn
in
humidity
%
barometer
mb
20260510201543 78 255 0.0 1.7 0.00 0.02 0.01 52 1011.8
20260510200043 78 243 0.0 2.6 0.00 0.02 0.01 49 1012.0
20260510194543 76 265 0.0 2.6 0.00 0.02 0.01 54 1012.2
20260510193046 76 283 0.0 1.7 0.00 0.02 0.01 53 1012.2
20260510191549 76 342 0.0 0.9 0.00 0.02 0.01 52 1012.4
20260510190050 76 337 0.0 1.7 0.00 0.02 0.01 52 1012.3
20260510184540 77 255 0.0 2.6 0.00 0.03 0.01 50 1012.5
20260510183039 77 263 0.0 3.5 0.00 0.03 0.01 50 1012.4
20260510181538 78 130 0.0 2.6 0.00 0.03 0.01 48 1012.4
20260510180040 80 321 0.0 4.3 0.00 0.03 0.01 48 1012.3
20260510174539 80 292 0.0 4.3 0.00 0.03 0.01 46 1012.4
20260510173034 80 238 0.0 3.5 0.00 0.03 0.01 47 1012.4
20260510171534 79 180 0.0 2.6 0.00 0.03 0.01 49 1012.4
20260510170030 78 283 0.9 3.5 0.00 0.03 0.01 49 1012.6
20260510164525 76 229 0.0 2.6 0.00 0.03 0.01 53 1012.6
20260510163023 75 281 0.9 2.6 0.00 0.03 0.01 55 1012.7
20260510161520 74 250 0.0 1.7 0.00 0.03 0.01 58 1012.6
20260510160016 73 4 0.9 2.6 0.00 0.03 0.01 59 1012.8
20260510154513 71 337 0.0 3.5 0.00 0.03 0.01 64 1012.8
20260510153009 69 246 0.0 1.7 0.00 0.03 0.01 71 1013.1
20260510151503 67 234 0.0 1.7 0.00 0.03 0.01 73 1013.1
20260510150100 65 270 0.0 1.7 0.00 0.03 0.01 76 1013.2
20260510144556 63 316 0.0 1.7 0.00 0.03 0.01 80 1013.1
20260510143051 62 251 0.0 2.6 0.00 0.03 0.01 81 1013.2
20260510141549 61 328 0.0 0.9 0.00 0.03 0.01 84 1013.3
20260510140045 60 236 0.0 1.7 0.00 0.03 0.01 86 1013.3
20260510134543 58 115 0.0 1.7 0.00 0.03 0.01 87 1013.2
20260510133039 57 94 0.0 0.9 0.00 0.03 0.01 90 1013.1
20260510131535 56 240 0.0 0.9 0.00 0.03 0.01 91 1013.3
20260510130033 55 327 0.0 0.9 0.00 0.03 0.01 92 1013.4
20260510124535 54 338 0.0 0.9 0.00 0.03 0.01 93 1013.1
20260510123028 54 317 0.0 0.9 0.00 0.03 0.01 93 1012.9
20260510121526 53 293 0.0 0.9 0.00 0.03 0.01 94 1012.9
20260510120024 53 293 0.0 0.9 0.00 0.03 0.01 94 1012.8
20260510114522 53 293 0.0 0.9 0.00 0.03 0.01 94 1012.6
20260510113020 52 293 0.9 2.6 0.00 0.03 0.01 94 1012.6
20260510111518 52 27 0.0 2.6 0.00 0.03 0.01 94 1012.4
20260510110029 51 320 0.0 0.9 0.00 0.03 0.01 95 1012.0
20260510104513 51 304 0.0 1.7 0.00 0.03 0.01 95 1012.1
20260510103018 51 345 0.0 0.0 0.00 0.03 0.01 95 1011.5
20260510101511 51 345 0.0 0.9 0.00 0.03 0.01 95 1011.8
20260510100011 51 321 0.0 0.9 0.00 0.03 0.01 95 1011.8
20260510094509 50 318 0.0 1.7 0.01 0.03 0.01 95 1011.5
20260510093008 50 306 0.0 0.9 0.01 0.03 0.01 94 1011.4
20260510091508 51 324 0.0 2.6 0.01 0.03 0.01 94 1011.5
20260510090007 51 18 0.0 2.6 0.01 0.03 0.01 95 1011.2
20260510084506 51 357 0.0 0.0 0.00 0.02 0.00 95 1010.9
20260510083005 51 357 0.0 0.0 0.00 0.02 0.00 95 1010.8
20260510081505 51 357 0.0 0.0 0.00 0.02 0.00 95 1010.9
20260510074502 49 8 0.0 0.9 0.00 0.02 0.00 95 1010.7
20260510073100 48 8 0.0 0.0 0.00 0.02 0.00 94 1010.5
20260510071559 48 8 0.0 0.0 0.00 0.02 0.00 94 1010.3
20260510070058 48 8 0.0 0.0 0.00 0.02 0.00 94 1010.2
20260510064606 48 8 0.0 0.0 0.00 0.02 0.00 94 1010.2
20260510063055 49 8 0.0 0.0 0.00 0.02 0.00 94 1010.3
20260510061557 49 8 0.0 0.0 0.00 0.02 0.00 94 1010.4
20260510060052 49 8 0.0 0.0 0.00 0.02 0.00 94 1010.4
20260510054551 49 8 0.0 0.0 0.00 0.02 0.00 93 1010.6
20260510053048 49 8 0.0 0.0 0.00 0.02 0.00 93 1010.6
20260510051547 50 8 0.0 0.0 0.00 0.02 0.00 93 1010.7
20260510050045 50 8 0.0 0.0 0.00 0.02 0.00 93 1010.9
20260510044602 50 8 0.0 0.0 0.00 0.02 0.00 93 1010.8
20260510043042 50 8 0.0 0.0 0.00 0.02 0.00 93 1011.0
20260510041541 50 8 0.0 0.0 0.00 0.02 0.00 93 1011.1
20260510040038 51 8 0.0 0.0 0.00 0.02 0.00 93 1011.1
20260510034537 51 8 0.0 0.0 0.00 0.02 0.02 93 1011.0
20260510033035 51 8 0.0 0.0 0.00 0.02 0.02 92 1010.7
20260510031537 51 8 0.0 0.0 0.00 0.02 0.02 92 1010.6
20260510030038 51 8 0.0 0.0 0.00 0.02 0.02 92 1010.4
20260510024537 52 8 0.0 0.0 0.00 0.02 0.02 92 1010.6
20260510023031 52 8 0.0 0.0 0.00 0.02 0.02 92 1010.5
20260510021533 52 8 0.0 0.0 0.00 0.02 0.02 91 1010.5
20260510020030 53 8 0.0 0.0 0.00 0.02 0.02 91 1010.3
20260510014528 53 8 0.0 0.0 0.00 0.02 0.02 91 1010.3
20260510013026 53 8 0.0 0.0 0.00 0.02 0.02 90 1010.4
20260510011524 53 8 0.0 0.0 0.00 0.02 0.02 89 1010.3
20260510010022 54 8 0.0 0.0 0.00 0.02 0.02 89 1010.1
20260510004520 55 8 0.0 0.0 0.00 0.02 0.02 88 1010.1
20260510003024 55 8 0.0 0.0 0.00 0.02 0.02 87 1010.2
20260510001519 56 8 0.0 0.0 0.00 0.02 0.02 86 1010.1
20260510000018 57 8 0.0 0.0 0.00 0.02 0.02 85 1010.0
20260509234518 57 8 0.0 0.0 0.00 0.02 0.02 84 1010.1
20260509233023 58 8 0.0 0.0 0.00 0.02 0.02 83 1009.9
20260509231517 59 8 0.0 0.0 0.00 0.02 0.02 83 1009.7
20260509230018 59 11 0.0 0.9 0.00 0.02 0.02 83 1009.6
20260509224514 59 10 0.0 0.9 0.00 0.02 0.02 83 1009.8
20260509223016 59 10 0.0 0.9 0.00 0.02 0.02 83 1009.9
20260509221612 59 9 0.0 0.9 0.01 0.02 0.02 84 1010.0
20260509220011 59 34 0.0 0.9 0.01 0.02 0.02 83 1010.1
20260509214510 59 306 0.0 0.9 0.01 0.02 0.02 82 1010.3
20260509213009 60 299 0.0 0.0 0.01 0.02 0.02 78 1010.2
20260509211508 61 317 0.9 3.5 0.00 0.01 0.01 74 1010.5
20260509210008 61 321 0.0 2.6 0.00 0.01 0.01 73 1010.2
20260509204507 62 273 0.0 2.6 0.00 0.01 0.01 72 1010.2
20260509203007 61 325 0.0 3.5 0.00 0.01 0.01 75 1010.0